Location: Luxembourg
(49.6000°N, 6.1500°W)
Time: 02:05:35
(UTC+01:00)

Tiangong 1 - Visible Passes

Search period start: 21 November 2017 00:00
Search period end: 01 December 2017 00:00
Orbit: 285 x 308 km, 42.8° (Epoch: 20 November)

Date Brightness Start Highest point End Pass type
(mag) Time Alt. Az. Time Alt. Az. Time Alt. Az.
27 Nov 3.4 19:32:24 10° SSW 19:33:04 12° S 19:33:04 12° S visible
28 Nov 3.3 19:38:02 10° SW 19:38:59 15° SSW 19:38:59 15° SSW visible
29 Nov 3.4 18:10:52 10° S 18:11:35 11° SSE 18:12:17 10° SE visible
29 Nov 3.3 19:43:49 10° SW 19:44:47 15° SSW 19:44:47 15° SSW visible
30 Nov 3.2 18:15:48 10° SSW 18:17:20 14° SSE 18:18:51 10° SE visible
30 Nov 3.5 19:49:38 10° SW 19:50:29 15° SW 19:50:29 15° SW visible
